Nellis AFB, NV

3:21 PM PDT on June 27, 2017 (GMT -0700)
Nellis Air Force Base

Weather History for KLSV - January, 2014

Change the Weather History Date:

Friday, January 10, 2014

  Actual Average Record
Temperature  
Mean Temperature 49 °F -  
Max Temperature 61 °F 57 °F 68 °F (2002)
Min Temperature 37 °F 34 °F 26 °F (2000)
Degree Days  
Heating Degree Days 16    
Moisture  
Dew Point 23 °F    
Average Humidity 39    
Maximum Humidity 51    
Minimum Humidity 26    
Precipitation  
Precipitation 0.00 in - - ()
Sea Level Pressure  
Sea Level Pressure 30.12 in    
Wind  
Wind Speed 6 mph (ENE)    
Max Wind Speed 10 mph    
Max Gust Speed -    
Visibility 10 miles    
Events      
Averages and records for this station are not official NWS values.
T = Trace of Precipitation, MM = Missing Value Source: NWS Daily Summary

Daily Weather History Graph

Daily Weather History Graph

Search for Another Location

Airport or City:

Trip Planner

Search our weather history database for the weather conditions in past years. The results will help you decide how hot, cold, wet, or windy it might be!

Date:

Astronomy

Jan. 10, 2014 Rise Set
Actual Time 6:51 AM PST 4:44 PM PST
Civil Twilight 6:23 AM PST 5:12 PM PST
Nautical Twilight 5:51 AM PST 5:44 PM PST
Astronomical Twilight 5:20 AM PST 6:15 PM PST
Moon 12:48 PM PST (1/10) 2:05 AM PST (1/10)
Length of Visible Light 10h 49m
Length of Day
9h 52m
Waxing Gibbous, 76% of the Moon is Illuminated
Jan 10
Waxing Gibbous
Jan 15
Full
Jan 23
Last Quarter
Jan 30
New
Feb 6
First Quarter

Hourly Weather History & Observations

Time (PST) Temp. Windchill Dew Point Humidity Pressure Visibility Wind Dir Wind Speed Gust Speed Precip Events Conditions
12:58 AM 43.7 °F 38.1 °F 19.2 °F 38% 30.07 in 10.0 mi NE 10.4 mph - N/A   Clear
1:58 AM 41.2 °F 38.2 °F 19.4 °F 42% 30.07 in 10.0 mi NE 4.6 mph - N/A   Clear
2:58 AM 38.1 °F 34.6 °F 19.9 °F 48% 30.09 in 10.0 mi NE 4.6 mph - N/A   Clear
3:58 AM 37.6 °F 35.1 °F 19.6 °F 48% 30.09 in 10.0 mi NE 3.5 mph - N/A   Clear
5:58 AM 37.6 °F 32.3 °F 19.9 °F 49% 30.10 in 10.0 mi NE 6.9 mph - N/A   Clear
6:58 AM 37.8 °F - 20.5 °F 50% 30.11 in 10.0 mi Calm Calm - N/A   Clear
7:58 AM 37.2 °F - 20.5 °F 51% 30.15 in 10.0 mi NNW 2.3 mph - N/A   Clear
8:58 AM 43.5 °F 41.9 °F 21.7 °F 42% 30.17 in 10.0 mi East 3.5 mph - N/A   Clear
9:58 AM 49.1 °F - 24.1 °F 38% 30.16 in 10.0 mi Calm Calm - N/A   Clear
10:58 AM 52.5 °F - 23.5 °F 32% 30.14 in 10.0 mi SSE 2.3 mph - N/A   Clear
11:58 AM 58.6 °F - 23.2 °F 26% 30.09 in 10.0 mi ENE 8.1 mph - N/A   Clear
12:58 PM 60.3 °F - 24.6 °F 26% 30.07 in 10.0 mi ENE 10.4 mph - N/A   Clear
1:58 PM 61.0 °F - 26.2 °F 27% 30.05 in 10.0 mi East 5.8 mph - N/A   Clear
2:58 PM 61.7 °F - 26.8 °F 27% 30.06 in 10.0 mi ENE 4.6 mph - N/A   Clear
3:58 PM 59.4 °F - 27.3 °F 29% 30.07 in 10.0 mi East 4.6 mph - N/A   Clear
4:58 PM 55.8 °F - 27.9 °F 34% 30.08 in 10.0 mi East 3.5 mph - N/A   Clear
5:58 PM 51.8 °F - 25.9 °F 37% 30.11 in 10.0 mi ENE 8.1 mph - N/A   Clear
6:58 PM 50.9 °F - 23.9 °F 35% 30.14 in 10.0 mi ENE 8.1 mph - N/A   Clear
7:58 PM 48.7 °F - 23.4 °F 37% 30.17 in 10.0 mi NE 5.8 mph - N/A   Clear
8:58 PM 45.3 °F - 23.5 °F 42% 30.18 in 10.0 mi NE 1.2 mph - N/A   Clear
9:58 PM 44.8 °F 42.4 °F 25.9 °F 48% 30.18 in 10.0 mi NW 4.6 mph - N/A   Clear
10:58 PM 42.1 °F 38.4 °F 24.4 °F 50% 30.18 in 10.0 mi NNE 5.8 mph - N/A   Clear
11:58 PM 44.2 °F 41.0 °F 23.9 °F 45% 30.17 in 10.0 mi NNE 5.8 mph - N/A   Clear